Location: Bishop�s Knoyle
(51.0728°N, 2.1714°W)
Time: 17:27:56
(UTC+00:00)

Cosmos 1634 Rocket - Pass Details

Date: 18 September 2020
Orbit: 961 x 991 km, 82.9° (Epoch: 30 October)

Event Time Altitude Azimuth Distance (km) Brightness Sun altitude
Exits shadow 21:18:59 29° 208° (SSW) 1,678 5.1 -27.1°
Maximum altitude 21:22:14 67° 283° (WNW) 1,040 4.2 -27.5°
Drops below altitude 10° 21:28:26 10° 6° (N) 2,720 6.8 -28.2°
Sets 21:30:59 0° 9° (N) 3,674 7.5 -28.5°
